Probability
30 27 22 21 22 24 23 21 18 15 12 12 13 14 14 14 15 14 14 15 14 11 10 8 6 5 6 8 9 9 8 7 7 8 7 5 6 6 5 4 2 1 1
30 28 26 24 23 23 22 21 20 17 13 11 12 13 14 16 17 17 15 15 15 15 13 12 9 8 8 8 9 9 9 9 8 7 6 5 6 6 6 5 4 4 4
30 28 27 26 24 21 21 21 20 18 15 11 10 11 13 16 17 18 18 17 17 18 18 16 14 12 11 9 10 11 11 11 11 8 6 6 7 7 7 7 8 8 7
27 25 24 25 23 20 18 18 17 16 14 12 11 11 12 13 14 16 18 19 19 19 19 17 15 13 12 11 12 12 12 13 13 12 8 7 8 8 9 10 10 9 7
27 26 26 26 24 19 15 15 14 14 15 16 16 16 15 13 12 13 16 19 20 19 18 17 14 12 11 11 12 13 13 14 15 14 10 7 7 7 8 9 10 8 5
30 30 30 30 27 21 18 18 19 19 21 22 21 20 18 15 11 10 13 17 19 19 18 17 15 13 11 10 9 9 10 11 12 12 9 7 6 6 6 6 7 6 5
30 29 29 29 28 25 23 24 24 24 26 25 24 22 20 15 9 7 9 13 17 17 17 17 16 14 12 11 9 7 7 6 6 8 7 5 4 5 4 4 4 5 5
25 24 24 26 26 26 27 26 24 24 25 26 24 22 19 13 7 4 6 9 13 15 16 17 17 15 12 11 11 10 8 6 4 4 5 4 3 3 3 3 3 2 3
25 23 22 23 24 25 26 25 23 23 24 24 23 21 19 15 8 4 4 7 12 14 15 16 15 13 9 8 11 14 13 10 5 3 2 2 1 1 1 1 1 1 2
25 24 23 23 24 25 25 23 22 22 22 21 21 21 19 16 10 4 4 8 13 15 16 15 11 8 6 7 11 15 16 13 8 5 3 2 1 1 0 1 1 1 1
22 23 23 23 24 24 23 21 20 20 18 17 17 18 17 14 9 3 2 8 13 15 15 13 8 4 3 5 8 11 12 11 10 8 7 5 4 3 2 2 3 3 3
19 21 22 22 21 20 19 18 17 16 15 14 14 14 14 11 7 2 1 4 9 12 12 10 6 2 1 2 4 5 6 7 9 11 11 10 7 5 5 5 4 4 3
17 19 21 21 17 14 14 14 13 13 12 12 12 12 11 10 7 3 1 1 3 7 8 6 3 1 0 0 2 3 4 7 10 13 15 14 11 9 8 7 6 3 2
16 17 19 18 15 11 10 10 10 9 9 9 9 9 9 9 8 6 3 2 2 4 5 4 1 0 0 1 3 4 6 8 12 15 17 17 16 13 10 8 7 5 3
13 14 14 14 12 10 8 7 7 7 6 6 6 6 6 7 7 6 4 3 3 3 2 3 2 2 1 3 5 6 7 9 12 15 16 17 17 14 11 9 7 5 4
10 10 10 11 11 10 9 7 5 4 4 3 2 3 3 4 4 3 2 1 1 1 2 3 3 4 4 4 6 6 7 8 10 12 14 15 14 12 10 9 8 5 4
7 7 7 8 9 9 9 8 5 3 1 1 0 1 1 1 1 1 0 0 0 1 2 3 3 4 4 5 6 6 6 6 7 9 10 10 9 9 9 9 8 6 5
5 4 3 4 5 6 7 7 6 3 1 0 0 0 0 0 0 0 0 0 0 1 3 4 3 3 3 4 6 6 6 6 6 7 6 6 6 7 7 8 8 6 5
2 2 1 1 1 3 4 5 6 5 3 1 0 0 0 0 0 0 0 0 0 1 3 4 3 3 2 3 5 6 6 6 6 6 6 5 5 5 6 7 7 6 4
1 1 0 0 0 1 3 4 6 6 5 3 1 0 0 0 0 0 0 0 0 1 2 3 2 1 1 2 4 6 6 6 6 6 6 5 4 4 5 6 7 6 5
0 0 0 0 0 1 2 3 5 6 6 4 2 1 0 0 0 0 0 0 0 0 1 1 1 0 1 3 5 6 6 6 6 6 6 4 4 4 5 6 6 6 5
0 0 0 0 0 0 1 1 3 4 6 5 4 1 0 0 0 0 0 0 0 0 0 0 0 0 1 3 5 6 6 6 6 6 6 4 4 5 6 6 6 5 4
0 0 0 0 0 0 0 0 1 3 5 6 4 2 1 0 0 0 0 0 0 0 0 0 0 0 1 3 4 4 5 6 6 6 5 4 4 6 7 7 5 4 3
0 0 0 0 0 0 0 0 0 2 4 5 4 3 1 0 0 0 0 0 0 0 0 0 0 1 2 3 3 3 4 4 4 5 4 4 4 5 6 5 4 3 3
0 0 0 0 0 0 0 0 0 0 2 4 3 2 1 0 0 0 0 0 0 0 0 0 0 1 3 3 3 3 3 2 3 3 3 4 5 4 4 4 3 3 3
0 0 0 0 0 0 0 0 0 0 1 3 3 1 0 0 0 0 0 0 0 0 0 0 1 2 3 3 3 3 2 1 1 1 2 4 5 4 3 3 3 3 3
Wind_Speed
8 7 7 7 7 7 6 6 6 5 5 5 5 5 5 5 5 5 5 5 5 5 4 4 5 3 3 3 3 3 3 3 4 3 2 2 2 3 2 2 2 2 2
6 6 7 6 6 6 6 6 5 5 5 5 5 5 6 5 5 6 6 5 6 5 5 4 5 3 4 3 3 4 4 4 4 4 2 2 3 3 3 3 2 2 2
6 6 6 6 6 6 6 5 5 5 4 4 4 5 6 6 5 6 6 5 6 6 5 6 6 5 5 4 4 4 3 3 3 3 3 2 1 2 2 2 2 2 2
6 6 7 7 7 6 6 5 5 5 5 5 5 5 6 5 5 5 5 5 5 6 6 6 6 6 6 5 5 5 4 3 3 3 3 2 2 1 2 2 2 2 2
6 6 7 6 6 5 5 4 4 4 5 5 5 5 5 5 5 5 5 5 5 5 5 5 6 7 7 6 5 4 4 4 3 3 3 2 2 2 3 2 3 2 2
5 5 5 5 5 5 5 5 5 4 4 4 5 6 6 5 6 7 6 5 5 5 4 4 5 5 6 7 7 7 7 6 5 4 4 4 5 4 3 3 3 2 3
4 4 5 5 5 6 5 5 4 4 4 4 5 4 5 5 6 6 6 5 5 4 4 3 3 3 4 4 4 5 6 7 8 6 6 6 5 5 5 5 5 4 4
4 4 5 6 6 5 5 5 5 4 4 4 5 4 4 5 6 6 6 6 5 5 4 4 4 4 3 4 3 3 4 5 6 6 6 7 6 5 6 6 5 4 2
4 5 5 6 6 6 6 6 5 4 4 4 4 4 4 5 6 7 6 4 4 5 5 5 5 5 4 3 3 4 4 4 5 6 6 6 6 6 5 3 3 3 3
5 5 4 4 6 6 6 5 4 4 5 4 4 4 5 5 6 7 7 4 4 4 4 4 6 5 5 4 4 5 5 5 3 3 4 4 4 4 6 6 5 4 3
2 2 3 4 5 5 5 4 4 4 4 3 3 3 4 5 5 6 7 5 5 4 4 4 4 5 5 5 5 5 7 5 3 3 3 3 3 3 3 4 5 5 5
1 2 3 3 3 4 4 4 4 4 4 3 2 3 3 3 4 5 7 7 6 5 5 4 4 5 6 5 4 5 6 4 3 3 3 3 3 3 3 4 5 5 5
2 2 3 2 2 3 4 4 4 4 4 3 4 4 3 3 3 5 6 7 7 5 4 4 4 5 4 4 4 5 4 3 3 3 4 4 3 3 3 3 3 3 3
2 2 2 2 2 2 2 3 4 4 4 4 4 3 3 3 3 3 3 3 4 4 3 2 3 3 3 3 2 3 3 3 4 4 3 3 2 2 2 2 2 2 2
1 1 1 1 2 2 2 2 3 3 5 5 4 4 4 5 5 6 4 4 3 3 2 1 1 1 1 2 2 2 2 2 3 3 3 3 2 2 2 2 2 2 3
1 1 1 1 1 2 2 1 1 2 3 4 4 5 4 5 5 5 5 4 4 4 3 2 2 2 3 3 3 2 2 2 3 3 3 3 3 2 2 2 2 2 2
2 2 1 1 1 2 2 2 1 1 1 1 2 3 4 3 3 3 4 3 3 4 2 3 3 3 3 3 3 3 3 3 3 3 3 3 3 3 3 2 2 2 2
2 2 2 1 1 1 2 3 3 2 2 2 1 1 3 2 3 3 3 2 1 2 3 3 3 3 4 4 4 4 3 3 2 3 3 3 3 3 3 3 3 3 3
2 1 1 1 1 1 1 2 2 2 2 2 1 1 2 2 2 2 3 2 3 3 3 3 3 3 4 4 4 4 4 4 3 3 3 4 3 3 3 3 3 4 4
1 2 1 1 1 1 1 1 2 2 2 2 2 2 1 0 0 1 1 2 2 3 3 3 3 3 3 3 3 3 3 3 3 3 3 3 3 3 4 4 3 3 3
1 1 1 1 1 1 1 2 2 2 2 2 2 2 2 2 2 2 2 2 2 3 3 3 3 3 3 3 3 3 3 3 3 4 4 3 3 3 3 3 3 3 3
1 1 1 1 1 1 1 1 1 2 2 2 2 1 2 2 2 2 2 2 2 2 2 2 3 3 3 3 3 3 3 3 3 3 4 4 4 4 3 3 3 3 3
1 1 1 1 1 1 1 1 1 2 2 2 1 1 1 2 2 2 2 2 2 2 2 2 3 3 3 3 3 3 4 4 4 4 4 4 4 3 3 3 4 4 3
2 2 1 1 1 1 1 1 1 2 2 2 1 1 1 2 2 2 2 1 1 2 2 2 3 4 4 3 2 3 3 4 4 4 6 5 4 3 4 4 4 5 4
1 1 1 1 1 1 1 1 1 2 2 2 2 1 1 1 1 1 1 1 2 2 3 3 3 3 4 4 3 3 3 4 4 3 4 4 4 4 4 5 4 4 4
1 1 1 1 1 1 1 1 2 2 2 1 1 1 1 2 2 2 2 2 2 2 2 3 3 4 4 4 4 4 3 3 3 4 3 3 3 3 4 4 5 4 4
Wind_Direction
196 199 202 202 201 199 202 205 204 202 199 203 206 208 214 216 210 206 213 213 220 231 230 226 233 226 226 221 209 210 213 207 232 253 238 250 231 238 249 251 238 227 227
192 193 199 197 194 198 204 207 203 203 204 209 207 209 217 217 210 210 217 216 217 225 230 228 237 230 229 223 215 219 219 213 214 240 244 230 233 233 233 242 245 243 244
188 191 194 195 196 201 206 207 203 201 203 209 211 216 220 217 212 213 214 217 219 224 225 227 234 224 230 228 223 225 227 223 211 218 240 230 239 226 234 245 238 244 244
189 193 196 200 200 201 202 202 204 203 201 206 215 218 219 217 215 214 214 218 223 228 227 226 227 222 227 229 229 229 223 220 212 217 234 236 235 221 208 227 245 241 248
186 192 200 199 195 191 196 202 204 205 211 211 215 219 221 218 218 213 213 215 221 232 235 233 232 228 229 227 229 223 212 213 215 224 235 230 225 210 219 212 234 252 253
183 195 192 187 186 187 193 196 200 206 212 209 216 219 223 228 226 213 207 215 217 221 233 243 242 234 237 235 234 225 213 212 219 224 231 234 232 222 211 212 214 222 248
185 190 186 184 190 196 194 187 198 206 212 215 219 216 224 232 229 219 208 205 212 215 221 231 248 251 237 237 238 231 226 226 219 216 229 236 231 218 205 213 214 221 236
183 192 190 185 192 193 190 197 202 206 210 220 225 222 226 233 221 215 209 208 213 216 216 219 228 245 245 231 234 235 237 236 229 224 231 237 237 224 210 214 216 218 240
185 197 202 194 194 194 197 203 203 199 210 217 220 222 226 238 224 214 207 210 214 221 222 218 219 227 240 225 224 237 247 253 240 232 239 248 250 237 212 194 198 208 238
210 212 208 201 200 203 208 206 198 199 210 210 222 223 222 231 227 217 206 208 216 227 229 227 227 226 227 210 213 224 238 248 253 260 260 263 253 235 211 206 206 211 224
231 224 218 211 207 204 204 202 196 200 200 206 220 233 231 232 228 219 209 209 215 221 230 234 234 219 222 224 219 225 233 236 237 245 257 262 257 236 220 219 218 216 218
234 235 239 226 215 201 192 200 198 194 199 208 224 249 243 232 226 223 218 221 219 221 231 231 228 216 220 228 227 236 232 224 224 230 243 248 245 240 235 231 228 230 232
199 218 231 235 221 199 193 197 199 196 201 212 217 235 254 247 235 229 225 226 221 221 231 229 224 220 222 225 230 232 226 216 217 229 241 248 245 243 245 242 235 230 243
217 219 213 222 224 203 196 199 203 203 203 209 217 230 248 247 239 232 230 228 224 225 231 222 214 212 219 228 227 219 221 224 224 234 245 252 245 240 242 241 241 236 246
225 250 249 243 214 190 194 212 216 218 212 207 214 213 231 248 242 227 221 223 220 220 202 194 194 201 216 226 230 235 232 224 232 241 240 247 249 244 248 242 236 233 235
214 251 247 252 215 185 178 241 288 242 248 233 227 216 237 244 236 216 217 214 212 196 174 204 215 219 226 234 239 248 246 241 237 238 236 234 236 237 247 243 229 232 243
212 235 239 231 221 200 193 195 236 312 297 236 244 236 228 236 229 212 206 192 186 173 191 216 219 223 228 232 234 236 243 247 240 234 234 232 227 228 231 237 232 233 243
213 222 227 227 223 217 209 206 206 220 255 284 286 253 242 239 223 214 199 156 163 190 217 230 232 229 231 235 238 239 241 242 239 240 236 234 229 224 226 230 228 233 237
217 221 219 221 225 229 219 206 197 212 236 268 300 304 259 238 222 209 183 193 213 227 232 233 234 233 232 235 240 240 237 235 235 237 235 230 230 230 232 230 227 230 233
214 221 212 202 226 223 218 203 203 210 222 239 256 263 252 214 268 248 218 226 222 232 234 235 237 237 236 238 242 241 240 241 237 235 236 233 228 226 230 233 230 231 236
215 223 223 208 219 222 223 223 219 217 225 240 255 254 220 219 233 238 236 235 232 234 237 239 235 232 235 235 238 238 237 244 244 239 235 232 228 225 226 225 225 225 229
201 207 211 207 207 212 218 221 220 218 227 238 264 260 214 218 231 237 237 237 241 243 240 238 239 240 242 241 236 233 232 232 236 237 235 230 227 225 223 220 218 217 219
184 188 199 219 213 210 222 231 229 226 233 240 238 237 225 234 236 232 230 236 243 251 246 236 239 244 246 243 237 230 231 234 231 229 230 228 225 224 220 216 216 215 219
186 190 201 215 201 206 224 242 246 239 234 236 238 236 229 233 240 238 238 240 238 247 247 245 246 246 251 252 242 237 239 242 234 223 221 223 222 216 216 217 219 220 222
183 191 210 216 208 206 215 237 248 247 240 240 240 240 234 231 243 253 258 253 244 246 253 254 254 253 250 245 245 250 251 242 238 234 220 214 217 217 215 216 216 219 222
190 204 217 212 206 208 217 235 252 259 254 252 248 245 247 244 244 249 253 254 255 257 259 260 265 265 262 250 250 253 240 231 227 222 213 206 208 214 213 215 216 213 208